Location: Alfortville
(48.8058°N, 2.4204°E)
Time: 12:05:24
(UTC+00:00)

Cosmos 332 Rocket - Pass Details

Date: 24 October 2021
Orbit: 682 x 703 km, 74.0° (Epoch: 06 December)

Event Time Altitude Azimuth Distance (km) Brightness Sun altitude
Rises 17:39:45 0° 178° (S) 3,073 7.2 -9.9°
Reaches altitude 10° 17:42:11 10° 170° (S) 2,158 6.3 -10.3°
Maximum altitude 17:46:38 37° 104° (ESE) 1,084 4.3 -11.0°
Drops below altitude 10° 17:51:06 10° 38° (NE) 2,163 5.9 -11.7°
Sets 17:53:32 0° 30° (NNE) 3,081 6.8 -12.1°
Enters shadow 17:53:34 - 30° (NNE) 3,094 6.8 -12.1°
